Theta_e
306 307 310 309 309 314 314 315 314 314 314 316 315 315 315 315 315 314 315 315 315 315 316 317 318 317 317 318 318 320 322 323 323 322 320 322 324 328 329 331 334 336 337
305 306 308 306 304 310 313 313 314 315 315 315 315 313 313 313 312 314 314 315 315 315 315 315 316 316 317 317 317 318 319 321 322 321 320 319 322 326 328 329 330 333 335
306 305 304 303 301 306 313 312 314 314 314 314 313 313 313 311 314 311 313 314 314 314 315 315 314 315 315 315 315 315 315 316 321 320 316 317 318 322 324 326 328 330 332
304 303 301 300 301 303 311 311 312 312 312 312 310 312 311 309 310 309 310 310 310 311 312 311 311 312 314 314 314 314 315 315 316 315 307 312 316 316 320 323 323 326 330
303 301 301 299 298 302 310 311 311 312 311 310 308 309 307 307 305 307 307 307 309 309 309 309 310 310 310 311 311 312 314 313 313 303 302 305 309 310 313 316 317 316 324
302 301 300 298 298 301 306 308 309 307 306 304 303 303 299 298 299 302 302 306 307 307 307 308 307 308 308 308 309 310 311 309 307 300 300 301 302 304 311 313 311 314 315
301 301 300 299 299 299 299 300 300 300 298 298 298 297 297 298 300 302 302 303 305 306 306 307 306 307 307 307 307 307 307 303 300 299 299 299 300 302 308 312 313 312 312
302 300 299 299 299 300 300 300 299 298 297 297 298 303 304 303 303 303 304 300 305 306 306 306 306 306 307 307 306 305 306 305 301 300 301 301 301 304 309 310 310 311 312
301 300 299 299 299 299 300 300 299 298 298 300 301 301 302 302 303 302 302 303 305 305 305 305 306 306 306 306 305 305 306 305 302 300 301 301 301 306 308 309 310 310 311
302 300 299 299 299 300 300 300 298 299 299 298 297 297 296 296 298 301 301 303 304 304 304 305 305 305 304 303 303 303 304 301 299 299 299 300 304 307 308 309 310 310 311
302 301 299 298 299 300 300 299 299 298 298 297 297 296 297 298 298 298 298 301 302 303 302 302 302 302 301 298 299 301 300 299 299 298 298 299 304 307 308 308 309 309 310
303 300 299 298 300 300 300 299 299 299 298 297 296 297 297 297 297 296 296 299 298 299 298 298 297 298 298 298 297 298 298 298 298 298 298 299 302 305 306 307 308 308 309
301 300 298 299 300 300 300 299 299 298 297 296 297 298 298 296 296 296 297 297 297 297 296 296 296 296 297 296 297 297 298 299 299 299 299 300 302 304 306 307 307 308 308
301 300 299 299 300 299 299 298 298 297 296 297 298 298 297 296 295 297 298 297 297 296 296 296 296 296 296 296 297 297 298 299 299 299 299 300 302 303 304 305 306 307 308
301 299 299 299 300 299 298 297 296 296 297 298 298 298 297 296 296 296 297 298 297 296 295 296 297 297 297 297 296 297 297 298 298 299 299 299 300 302 303 305 305 305 306
301 300 298 299 300 299 298 296 296 296 297 298 298 297 297 297 296 297 297 297 297 296 294 295 296 297 297 297 297 297 297 297 299 299 298 298 299 301 302 302 303 304 304
301 299 299 299 300 298 298 297 297 297 298 298 298 297 297 297 297 297 297 297 297 296 295 294 294 295 296 296 297 297 297 297 298 299 299 300 299 300 299 300 301 302 304
301 299 299 300 300 298 297 297 297 298 298 298 297 297 297 297 297 297 296 296 296 296 296 295 294 294 295 296 296 296 297 297 297 298 299 299 298 298 298 298 299 300 301
300 299 299 299 300 298 297 298 297 298 298 297 297 297 297 297 297 297 296 296 296 296 295 295 295 294 295 295 295 295 295 296 297 298 298 297 297 297 297 297 297 298 299
300 299 298 300 300 298 297 298 297 298 298 297 297 297 297 297 297 297 296 296 296 296 295 295 295 295 294 294 293 293 294 296 296 298 297 296 297 296 297 297 297 299 299
299 299 298 300 300 298 297 297 297 297 297 297 297 297 296 296 296 296 296 297 296 296 296 296 295 295 295 294 294 294 293 293 294 293 295 295 296 296 297 297 298 299 300
300 300 299 299 300 298 297 297 297 297 298 298 297 297 297 296 296 296 296 296 296 296 296 296 295 295 295 295 294 293 293 293 292 293 294 295 295 296 296 297 299 300 300
300 301 299 299 300 299 297 297 298 298 298 298 298 297 297 296 296 296 296 295 295 296 296 295 295 295 295 295 295 294 293 293 293 293 293 294 294 296 296 297 298 300 300
301 301 299 299 300 299 297 297 298 297 298 298 297 297 297 296 296 296 295 295 295 295 295 296 296 296 295 295 295 294 294 293 293 294 294 294 295 296 297 297 297 298 299
302 301 300 299 299 299 297 297 297 297 298 297 297 297 296 296 296 296 295 295 294 295 295 296 296 296 296 295 295 294 294 293 293 294 295 295 296 295 296 297 297 296 298
302 301 301 299 299 299 298 297 297 297 297 297 297 296 296 296 296 295 295 295 294 294 295 296 295 296 296 295 295 295 293 293 293 293 294 294 295 296 296 296 296 296 296
Wind_Speed
4 4 6 8 10 11 11 10 10 9 9 8 9 9 8 10 13 13 13 14 15 13 12 14 15 14 14 14 15 14 14 13 13 14 12 7 8 9 12 10 9 8 5
6 6 9 12 13 12 11 12 13 10 9 9 10 9 10 10 13 13 14 13 13 16 15 16 16 15 15 14 14 15 15 14 13 15 11 6 5 1 4 9 11 10 11
10 10 10 14 14 10 9 9 9 9 10 9 9 12 12 11 13 12 13 13 12 14 15 15 16 15 15 16 15 14 14 15 17 15 14 7 9 11 6 9 10 11 11
8 8 11 11 10 9 9 9 10 9 11 12 9 11 11 12 12 12 11 12 12 14 14 15 15 16 15 15 15 16 16 17 16 17 13 9 10 12 12 13 15 15 15
9 10 10 9 8 9 10 12 10 11 11 11 11 11 11 12 12 13 13 13 14 14 14 15 14 14 15 15 15 15 16 17 18 15 13 11 12 13 12 14 16 19 22
8 9 9 8 8 8 8 9 9 10 10 11 11 11 11 11 11 12 13 14 15 15 16 15 16 15 16 17 16 15 15 15 19 13 13 11 12 12 12 13 15 16 17
6 8 9 9 8 8 9 10 10 11 11 11 11 11 12 12 12 13 15 14 16 16 16 17 16 15 16 17 18 17 15 17 17 16 10 11 12 11 12 12 12 14 15
5 5 7 8 9 8 8 10 10 10 10 11 12 14 14 13 13 15 15 17 17 17 16 16 16 18 17 16 15 15 16 16 14 12 11 9 11 11 12 14 14 14 15
6 6 7 7 8 8 9 10 9 9 9 10 10 12 12 11 11 13 14 16 17 17 17 16 16 16 16 15 13 13 15 15 12 13 13 12 9 12 14 15 16 16 15
7 7 7 7 8 7 9 11 9 9 9 10 11 12 12 12 12 13 14 14 14 15 15 15 15 15 13 14 15 13 13 13 12 14 13 11 11 12 15 17 17 17 17
9 7 7 6 7 6 7 8 11 10 12 11 13 13 13 13 13 14 14 14 14 14 13 13 13 13 15 12 12 13 13 12 12 13 13 10 12 13 14 17 19 19 19
8 7 7 6 6 7 6 9 10 11 11 12 12 14 15 15 13 14 14 13 16 16 17 16 14 12 13 13 13 11 7 11 14 17 16 15 15 15 16 17 18 19 20
5 6 4 4 5 6 6 8 7 8 9 9 12 14 15 15 14 13 13 16 19 18 18 17 15 14 15 15 13 12 9 9 12 17 19 17 16 16 16 17 18 20 21
5 7 4 3 5 5 6 7 7 7 8 9 12 14 17 16 14 12 14 18 21 22 18 15 14 15 17 16 13 11 9 9 10 13 14 14 16 17 18 18 18 19 20
6 7 5 4 5 5 6 7 5 6 7 9 11 14 16 15 14 13 13 18 21 23 23 17 16 17 19 21 17 17 15 14 16 17 18 17 18 17 18 17 17 21 23
8 6 5 4 4 5 6 6 6 8 7 9 11 14 15 15 15 14 13 16 20 24 24 20 20 21 21 23 22 21 20 16 14 15 15 12 12 15 16 20 23 23 23
9 8 3 3 3 5 6 6 7 7 7 8 11 13 13 15 16 14 13 15 18 22 23 23 20 18 20 20 21 22 20 19 13 13 11 12 14 17 23 23 25 26 26
11 7 5 2 3 5 5 4 6 6 8 8 10 11 13 14 14 14 14 13 16 20 22 24 28 20 19 20 22 22 22 20 15 15 15 15 19 22 23 28 29 27 32
10 10 7 5 4 4 2 3 4 5 7 8 9 10 12 13 14 13 14 13 15 18 20 24 29 21 20 22 24 24 23 17 15 15 15 22 17 19 24 31 29 32 26
10 10 9 6 6 4 2 1 2 3 6 7 8 9 11 12 13 13 14 14 15 17 19 22 26 25 20 24 26 25 22 15 19 13 22 19 23 24 25 26 31 28 27
11 10 9 9 7 6 5 4 5 3 5 6 6 10 11 11 12 13 15 15 15 15 16 19 24 25 26 30 31 31 26 21 14 21 17 23 19 24 25 26 29 25 26
12 11 11 9 9 7 6 4 3 3 2 4 7 10 10 11 12 13 15 16 15 13 13 15 18 23 25 26 27 25 21 22 33 25 27 23 24 24 24 24 24 19 22
16 14 11 11 10 8 6 5 5 4 3 5 8 8 9 10 12 13 14 16 16 15 15 15 15 17 22 23 23 20 16 18 35 31 30 28 26 23 24 25 27 21 25
16 15 15 13 11 11 7 7 6 5 5 5 7 7 9 10 11 12 14 17 17 18 19 18 16 17 20 21 23 20 18 24 27 21 31 28 23 24 23 23 26 25 21
18 18 16 16 15 12 10 9 8 7 6 7 8 8 8 9 10 12 14 16 17 15 15 16 18 16 18 21 22 22 22 23 22 25 25 35 30 27 23 22 25 29 27
21 21 19 19 16 14 11 10 9 8 8 7 8 8 8 9 10 11 13 15 16 16 13 15 18 15 16 18 20 18 19 21 24 26 31 26 29 32 25 22 26 29 31
Wind_Direction
57 320 301 326 351 12 21 12 15 18 19 6 31 27 30 11 20 15 14 13 22 13 14 8 7 3 6 359 357 352 354 357 351 337 309 309 269 279 294 286 276 265 261
178 262 307 323 341 2 24 31 26 32 34 29 33 20 19 17 17 16 21 17 16 12 9 0 5 4 358 355 353 358 344 343 344 344 335 281 274 213 315 297 273 265 263
228 254 293 318 340 11 29 32 33 28 34 30 31 23 19 22 22 27 19 15 14 11 7 3 360 360 358 352 351 353 347 339 340 328 303 297 264 253 250 313 291 259 261
261 296 320 338 355 23 36 41 38 27 35 28 20 24 22 19 23 22 13 15 14 8 2 360 359 355 352 351 349 342 341 334 325 324 313 290 276 268 249 265 303 270 246
293 333 347 360 13 30 41 43 41 36 28 26 25 21 19 17 17 19 14 14 8 3 359 360 355 349 347 345 342 340 337 330 326 314 317 294 280 280 280 278 296 282 257
319 347 6 24 28 34 38 41 33 26 22 18 17 16 15 14 10 7 5 7 5 358 355 354 351 350 343 341 342 337 332 318 320 328 315 307 290 284 308 311 292 296 285
346 359 17 34 34 30 25 18 13 10 12 13 13 13 9 5 8 4 359 356 0 357 354 351 348 350 344 341 335 335 337 329 327 330 316 297 290 296 317 319 312 300 297
6 5 16 19 26 41 39 21 14 9 10 12 13 18 18 17 5 1 357 355 359 356 354 350 349 347 344 340 338 340 336 333 330 324 322 299 296 321 317 314 312 316 313
11 9 8 11 25 20 20 21 20 18 19 19 18 11 14 6 8 6 0 3 358 354 354 353 352 347 343 343 346 339 334 333 312 309 314 313 318 319 313 316 315 313 312
10 357 358 1 20 34 25 9 18 22 16 6 8 3 359 352 2 4 4 9 356 358 350 354 349 348 344 337 341 339 335 318 306 310 309 307 326 317 313 314 314 313 308
331 341 355 4 24 36 19 3 15 14 8 1 6 8 5 1 358 351 2 2 5 5 359 353 354 349 347 336 338 338 331 329 329 325 316 316 322 313 310 310 310 309 306
304 321 354 8 22 28 20 12 8 8 0 3 3 11 8 5 0 359 1 358 358 347 337 342 346 333 332 341 334 333 347 347 344 337 330 323 319 315 311 308 306 306 303
323 334 353 6 17 18 8 2 356 351 3 6 11 8 10 7 6 10 10 354 354 353 348 345 350 346 347 346 344 339 349 356 345 337 335 329 322 318 315 310 308 306 304
302 322 357 20 15 2 354 357 349 0 7 14 13 8 11 9 12 18 11 355 358 353 346 346 353 358 358 357 353 346 331 316 315 307 307 311 314 314 314 314 309 305 301
275 314 331 360 5 357 350 4 9 20 21 19 14 12 9 12 15 16 12 358 356 356 354 349 351 353 356 358 2 3 351 322 321 307 300 297 303 316 312 313 307 306 303
276 300 299 321 341 352 356 11 19 24 25 21 14 12 8 12 15 16 12 358 356 357 356 355 356 356 351 351 354 351 356 357 350 3 339 321 318 319 316 314 311 308 304
258 278 271 270 326 353 357 9 19 20 22 19 14 10 8 13 13 9 6 356 359 357 4 5 354 349 349 344 339 340 343 353 348 348 333 317 320 314 310 313 313 311 303
243 264 280 286 313 337 355 13 23 19 16 15 10 6 10 13 10 10 7 1 358 355 1 5 1 341 341 339 333 337 337 339 336 336 346 336 327 314 316 314 316 311 307
236 249 254 255 275 311 330 22 17 7 0 5 2 2 10 9 10 7 9 6 2 2 359 1 2 358 347 341 339 336 340 344 347 332 341 337 323 321 317 317 318 314 308
237 239 239 240 260 294 278 274 270 313 317 343 352 359 6 6 7 7 9 10 9 7 360 1 357 4 358 352 343 343 352 356 347 333 330 337 322 329 325 327 326 319 312
246 241 231 237 259 272 266 258 238 275 300 331 344 356 355 357 1 8 7 8 2 359 357 354 351 357 2 2 353 356 357 356 355 332 339 339 338 334 333 335 335 329 327
241 231 231 238 245 253 257 255 258 246 321 317 343 340 345 350 359 2 2 0 355 353 349 348 350 352 354 357 353 349 347 351 348 351 344 342 341 340 340 342 337 330 335
238 236 237 241 244 260 250 252 250 253 275 302 320 320 339 350 354 353 353 353 355 349 354 1 357 356 351 352 354 354 350 332 334 340 343 336 340 346 347 350 348 325 325
241 238 237 240 243 251 253 252 258 260 272 293 299 318 336 343 344 346 347 346 347 355 357 352 5 1 355 350 352 350 339 336 339 330 341 343 346 352 354 353 349 338 320
239 239 239 242 241 248 252 248 256 262 279 286 297 312 319 333 331 336 339 339 339 346 2 352 351 356 1 349 348 342 337 342 342 337 320 339 343 348 353 356 355 354 349
239 242 237 238 236 243 249 249 250 258 266 274 287 296 308 321 322 328 329 333 335 339 346 1 355 345 345 344 340 339 340 345 339 340 336 332 334 342 347 0 3 360 357